星链-32296 (STARLINK-32296)

导读 | 豆包AI

STARLINK-32296是美国SpaceX星链星座的一员,于2024年10月15日发射入轨。星链项目旨在构建全球卫星互联网星座,为全球偏远地区等提供高速网络接入服务。该卫星承担星座组网任务,依托低轨部署优势降低通信时延,助力星链系统覆盖能力与服务能力的进一步提升。

基本信息
目录编号:
61524
目录名称:
STARLINK-32296
国际标识:
2024-183R
轨道中心:
EARTH
卫星名称:
星链-32296
卫星全名:
星链-32296 (STARLINK-32296)
卫星状态:
在轨 (已飞行516 天)
发射日期:
2024-10-15 UTC
国别 :
美国 (US)
星等 :
--
轨道信息
数据来源 国际轨道数据
星历时间: 2026-03-15T14:53:08+0800
6小时前
查看轨道信息
半长轴: 6853.312km
偏心率: 0.0000686
轨道倾角: 53.160°
近地点辐角 122.816°
升交点赤经 116.134°
平近点角 237.291°
近地点: 474.704km
远地点: 475.646km
周期: 94.105分钟
每日圈数: 15.302135
详细信息
固有亮度:
5
最大亮度:
2.5
卫星平台:
Starlink V1.0
覆盖范围:
全球
运营商:
太空探索技术公司
运营商所在国:
美国
制造商(研发单位):
太空探索技术公司
制造商所在国:
美国
使用方式:
暂无
卫星简介
Starlink 计划是 SpaceX 推出的全球卫星互联网项目,通过发射低轨道卫星,为全球尤其是偏远地区提供高速、低延迟的互联网服务。自 2019 年起,Starlink 已部署数千颗卫星,旨在缩小全球数字鸿沟,推动互联网普及。该项目还为军事、航空等行业提供通信支持,带来广泛经济效益。
2D轨道图
3D轨道图
轨道高度分析图
轨道倾角分析图
轨道综合分析图
查看轨道综合分析图